Weather History for Marshfield, MA

Change the Weather History Date:

Wednesday, January 9, 2013

  Actual Average (KPYM) Record (KPYM)
Temperature  
Mean Temperature 37 °F -  
Max Temperature 46 °F 35 °F 58 °F (1965)
Min Temperature 28 °F 15 °F -6 °F (1968)
Degree Days  
Heating Degree Days 28    
Moisture  
Dew Point 32 °F    
Average Humidity 80    
Maximum Humidity 100    
Minimum Humidity 57    
Precipitation  
Precipitation 0.00 in - - ()
Sea Level Pressure  
Sea Level Pressure 30.24 in    
Wind  
Wind Speed 4 mph (SW)    
Max Wind Speed 13 mph    
Max Gust Speed 24 mph    
Visibility 8 miles    
Events Rain    
Averages and records for this station are not official NWS values.
T = Trace of Precipitation, MM = Missing Value Source: NWS Daily Summary

Daily Weather History Graph

Daily Weather History Graph

Search for Another Location

Airport:

Trip Planner

Search our weather history database for the weather conditions in past years. The results will help you decide how hot, cold, wet, or windy it might be!

Date:

Astronomy

Jan. 09, 2013 Rise Set
Actual Time 7:10 AM EST 4:29 PM EST
Civil Twilight 6:39 AM EST 5:00 PM EST
Nautical Twilight 6:04 AM EST 5:35 PM EST
Astronomical Twilight 5:30 AM EST 6:09 PM EST
Moon 4:46 AM EST (1/9) 2:27 PM EST (1/9)
Length of Visible Light 10h 21m
Length of Day
9h 19m
Waning Crescent, 6% of the Moon is Illuminated
Jan 9
Waning Crescent
Jan 11
New
Jan 18
First Quarter
Jan 26
Full
Feb 3
Last Quarter

Hourly Weather History & Observations

Time (EST) Temp. Windchill Dew Point Humidity Pressure Visibility Wind Dir Wind Speed Gust Speed Precip Events Conditions
12:15 AM 35.6 °F 32.8 °F 32.0 °F 87% 30.37 in 10.0 mi West 3.5 mph - N/A   Clear
12:35 AM 33.8 °F 30.8 °F 30.2 °F 87% 30.38 in 10.0 mi West 3.5 mph - N/A   Clear
12:55 AM 33.8 °F 30.8 °F 30.2 °F 87% 30.37 in 10.0 mi West 3.5 mph - N/A   Clear
1:15 AM 33.8 °F 30.8 °F 30.2 °F 87% 30.38 in 10.0 mi WSW 3.5 mph - N/A   Clear
1:35 AM 32.0 °F 28.7 °F 30.2 °F 93% 30.38 in 10.0 mi West 3.5 mph - N/A   Clear
1:55 AM 32.0 °F - 30.2 °F 93% 30.39 in 10.0 mi Calm Calm - N/A   Clear
2:15 AM 32.0 °F - 28.4 °F 87% 30.38 in 3.0 mi Calm Calm - N/A   Clear
2:35 AM 30.2 °F - 28.4 °F 93% 30.38 in 10.0 mi Calm Calm - N/A   Light Freezing Rain
2:55 AM 30.2 °F 26.7 °F 28.4 °F 93% 30.38 in 10.0 mi SSW 3.5 mph - N/A   Light Freezing Rain
3:15 AM 30.2 °F - 28.4 °F 93% 30.39 in 10.0 mi Calm Calm - N/A   Light Freezing Rain
3:35 AM 30.2 °F 26.7 °F 28.4 °F 93% 30.39 in 8.0 mi West 3.5 mph - N/A   Light Freezing Rain
3:55 AM 30.2 °F 26.7 °F 28.4 °F 93% 30.39 in 9.0 mi WSW 3.5 mph - N/A   Light Freezing Rain
4:15 AM 28.4 °F 24.6 °F 28.4 °F 100% 30.38 in 8.0 mi West 3.5 mph - N/A   Light Freezing Rain
4:35 AM 28.4 °F 24.6 °F 28.4 °F 100% 30.38 in 7.0 mi WSW 3.5 mph - N/A   Light Freezing Rain
4:55 AM 28.4 °F 24.6 °F 28.4 °F 100% 30.37 in 6.0 mi WSW 3.5 mph - N/A   Light Freezing Rain
5:15 AM 28.4 °F 24.6 °F 28.4 °F 100% 30.38 in 5.0 mi WSW 3.5 mph - N/A   Light Freezing Rain
5:35 AM 28.4 °F 24.6 °F 28.4 °F 100% 30.38 in 5.0 mi West 3.5 mph - N/A   Light Freezing Rain
5:55 AM 28.4 °F 24.6 °F 26.6 °F 93% 30.38 in 4.0 mi WSW 3.5 mph - N/A   Light Freezing Rain
6:15 AM 28.4 °F 24.6 °F 26.6 °F 93% 30.38 in 4.0 mi WSW 3.5 mph - N/A   Light Freezing Rain
6:35 AM 28.4 °F 23.3 °F 26.6 °F 93% 30.39 in 3.0 mi WSW 4.6 mph - N/A   Light Freezing Rain
6:55 AM 28.4 °F 23.3 °F 26.6 °F 93% 30.40 in 3.0 mi WSW 4.6 mph - N/A   Light Freezing Rain
7:15 AM 28.4 °F 23.3 °F 28.4 °F 100% 30.41 in 2.0 mi WSW 4.6 mph - N/A   Light Freezing Rain
7:35 AM 28.4 °F 24.6 °F 28.4 °F 100% 30.41 in 1.8 mi West 3.5 mph - N/A   Light Freezing Rain
7:55 AM 28.4 °F 23.3 °F 28.4 °F 100% 30.41 in 2.5 mi West 4.6 mph - N/A   Light Freezing Rain
8:15 AM 30.2 °F - 28.4 °F 93% 30.40 in 3.0 mi Calm Calm - N/A   Light Freezing Rain
8:35 AM 30.2 °F - 30.2 °F 100% 30.40 in 4.0 mi Calm Calm - N/A   Light Freezing Rain
8:55 AM 32.0 °F - 32.0 °F 100% 30.40 in 4.0 mi Calm Calm - N/A   Heavy Drizzle
9:15 AM 32.0 °F - 32.0 °F 100% 30.40 in 6.0 mi Calm Calm - N/A   Heavy Drizzle
9:35 AM 33.8 °F - 32.0 °F 93% 30.40 in 10.0 mi Calm Calm - N/A   Heavy Drizzle
9:55 AM 35.6 °F - 32.0 °F 87% 30.39 in 10.0 mi Calm Calm - N/A   Light Drizzle
10:15 AM 37.4 °F - 32.0 °F 81% 30.37 in 10.0 mi Calm Calm - N/A   Light Drizzle
10:35 AM 39.2 °F 37.0 °F 32.0 °F 75% 30.36 in 10.0 mi South 3.5 mph - N/A   Light Drizzle
10:55 AM 39.2 °F - 32.0 °F 75% 30.35 in 10.0 mi Calm Calm - N/A   Clear
11:15 AM 41.0 °F - 32.0 °F 70% 30.34 in 10.0 mi Calm Calm - N/A   Clear
11:55 AM 42.8 °F 40.1 °F 32.0 °F 66% 30.29 in 10.0 mi South 4.6 mph - N/A   Clear
12:35 PM 42.8 °F 41.1 °F 32.0 °F 66% 30.23 in 10.0 mi SSE 3.5 mph - N/A   Clear
1:15 PM 44.6 °F 40.7 °F 32.0 °F 61% 30.22 in 10.0 mi South 6.9 mph - N/A   Clear
1:35 PM 44.6 °F 42.2 °F 33.8 °F 66% 30.20 in 10.0 mi SSE 4.6 mph - N/A   Clear
1:55 PM 44.6 °F 41.4 °F 33.8 °F 66% 30.23 in 10.0 mi South 5.8 mph - N/A   Clear
2:15 PM 44.6 °F 40.2 °F 35.6 °F 71% 30.22 in 10.0 mi South 8.1 mph - N/A   Clear
2:35 PM 44.6 °F 40.7 °F 35.6 °F 71% 30.21 in 10.0 mi South 6.9 mph - N/A   Clear
2:55 PM 44.6 °F 40.7 °F 33.8 °F 66% 30.19 in 10.0 mi South 6.9 mph - N/A   Clear
3:15 PM 44.6 °F 40.7 °F 33.8 °F 66% 30.17 in 10.0 mi South 6.9 mph - N/A   Clear
3:35 PM 44.6 °F 40.7 °F 32.0 °F 61% 30.16 in 10.0 mi South 6.9 mph - N/A   Partly Cloudy
4:15 PM 44.6 °F 40.7 °F 32.0 °F 61% 30.13 in 10.0 mi South 6.9 mph - N/A   Clear
4:35 PM 44.6 °F 40.7 °F 33.8 °F 66% 30.10 in 10.0 mi South 6.9 mph - N/A   Clear
4:55 PM 44.6 °F 39.7 °F 35.6 °F 71% 30.04 in 10.0 mi SSE 9.2 mph - N/A Rain Light Rain
5:15 PM 44.6 °F 40.7 °F 37.4 °F 76% 30.02 in 10.0 mi South 6.9 mph 19.6 mph N/A   Partly Cloudy
5:35 PM 44.6 °F 40.7 °F 37.4 °F 76% 30.06 in 10.0 mi South 6.9 mph 17.3 mph N/A   Partly Cloudy
5:55 PM 44.6 °F 39.2 °F 37.4 °F 76% 30.04 in 10.0 mi SSW 10.4 mph 20.7 mph N/A   Mostly Cloudy
6:15 PM 44.6 °F 39.2 °F 37.4 °F 76% 30.04 in 10.0 mi SSW 10.4 mph 17.3 mph N/A   Overcast
6:35 PM 46.4 °F 41.1 °F 37.4 °F 71% 30.04 in 10.0 mi SSW 11.5 mph 19.6 mph N/A   Mostly Cloudy
6:55 PM 46.4 °F 40.7 °F 37.4 °F 71% 30.03 in 10.0 mi SSW 12.7 mph 23.0 mph N/A   Mostly Cloudy
7:15 PM 46.4 °F 41.5 °F 37.4 °F 71% 30.03 in 10.0 mi SW 10.4 mph 24.2 mph N/A   Clear
7:35 PM 46.4 °F 41.5 °F 37.4 °F 71% 30.03 in 10.0 mi SW 10.4 mph 19.6 mph N/A   Clear
7:55 PM 46.4 °F 41.9 °F 37.4 °F 71% 30.04 in 10.0 mi SW 9.2 mph 20.7 mph N/A   Clear
8:15 PM 44.6 °F 39.2 °F 37.4 °F 76% 30.03 in 10.0 mi SW 10.4 mph 19.6 mph N/A   Clear
8:35 PM 44.6 °F 38.8 °F 37.4 °F 76% 30.03 in 10.0 mi SW 11.5 mph 19.6 mph N/A   Clear
8:55 PM 44.6 °F 39.2 °F 37.4 °F 76% 30.04 in 10.0 mi WSW 10.4 mph 18.4 mph N/A   Clear
9:15 PM 44.6 °F 40.2 °F 35.6 °F 71% 30.03 in 10.0 mi SW 8.1 mph 18.4 mph N/A   Clear
9:35 PM 44.6 °F 39.2 °F 35.6 °F 71% 30.03 in 10.0 mi WSW 10.4 mph 19.6 mph N/A   Clear
9:55 PM 44.6 °F 39.7 °F 35.6 °F 71% 30.04 in 10.0 mi WSW 9.2 mph 18.4 mph N/A   Clear
10:15 PM 44.6 °F 39.2 °F 35.6 °F 71% 30.05 in 10.0 mi WSW 10.4 mph 16.1 mph N/A   Clear
10:35 PM 44.6 °F 40.2 °F 33.8 °F 66% 30.05 in 10.0 mi WSW 8.1 mph - N/A   Clear
10:55 PM 44.6 °F 39.7 °F 33.8 °F 66% 30.04 in 10.0 mi WSW 9.2 mph 18.4 mph N/A   Clear
11:15 PM 44.6 °F 38.8 °F 32.0 °F 61% 30.05 in 10.0 mi SW 11.5 mph 19.6 mph N/A   Clear
11:35 PM 46.4 °F 41.5 °F 32.0 °F 57% 30.05 in 10.0 mi WSW 10.4 mph 20.7 mph N/A   Clear
11:55 PM 46.4 °F 41.5 °F 32.0 °F 57% 30.06 in 10.0 mi WSW 10.4 mph 19.6 mph N/A   Clear